Location: Unspecified
(0.0000°N, 0.0000°E)
Time: 12:12:12
(UTC-06:00)

Daily predictions for brighter satellites

Satellite Brightness Start Highest point End
(mag) Time Altitude Azimuth Time Altitude Azimuth Time Altitude Azimuth
BREEZE M DEB (TANK) 4.0 12:18:40 10° SW 12:22:36 74° NW 12:38:08 10° NE
Aurora 2 Rocket 3.6 12:23:54 10° WSW 12:29:24 83° NNW 12:37:31 10° ENE
Cosmos 1844 Rocket 2.7 12:26:33 10° N 12:32:07 73° ENE 12:37:41 10° SSE
Ariane H10+ 4.3 12:32:14 10° WNW 12:35:44 55° NNE 12:52:24 10° E
Cosmos 1470 Rocket 4.1 12:39:07 10° SSE 12:43:11 36° E 12:47:13 10° NNE
Coronas F rocket 0.9 12:41:18 10° S 12:43:42 85° W 12:46:04 10° N
FUSE 4.0 12:39:13 10° NW 12:44:33 67° NNE 12:49:53 10° ESE
Genesis I 3.7 12:40:54 10° S 12:44:35 40° ESE 12:48:16 10° NE
NOSS 3-1 (A) 3.7 12:40:39 10° S 12:45:56 40° ESE 12:51:10 10° NE
ISS -1.6 12:46:30 10° S 12:48:55 19° SE 12:50:52 12° E
FREGAT/IRIS 3.4 12:47:28 10° SE 12:50:13 30° E 12:52:57 10° NNE
Cosmos 1603 4.0 12:46:02 10° SSW 12:51:40 72° WNW 12:57:15 10° N
Meteor 2-10 4.0 12:46:39 10° N 12:51:55 75° E 12:57:24 10° S
Aureole 3 4.5 12:50:10 10° S 12:55:36 61° E 13:02:21 10° NNE
NOAA 12 4.0 12:54:52 10° SSE 13:00:03 67° ENE 13:05:14 10° N
HJ-1C 4.5 12:57:57 10° SE 13:00:50 25° E 13:03:41 10° NNE
Cosmos 1125 Rocket 3.5 12:58:16 10° NNW 13:03:27 90° W 13:08:40 10° SSE
SJ-6B 2.8 13:01:28 10° SSE 13:05:20 62° ENE 13:09:17 10° N
Iridium 4 Rocket 3.5 13:06:32 10° S 13:11:48 81° W 13:16:33 10° N
ARIANE 5 DEB (SYLDA) 2.6 13:08:40 10° WSW 13:12:50 49° S 13:13:46 28° ESE
Cosmos 1655 Rocket 4.2 13:07:14 10° SSE 13:13:23 49° E 13:19:28 10° NNE
Cosmos 1680 Rocket 4.1 13:10:19 10° SSW 13:15:25 57° WNW 13:20:30 10° N
Atlas Centaur 2 3.4 13:20:01 10° N 13:21:22 13° N 13:21:22 13° N
Cosmos 2278 Rocket 2.1 13:17:41 10° NNW 13:23:21 89° ENE 13:29:02 10° SSE
NOSS 3-1 (C) 4.0 13:20:03 10° SW 13:25:27 49° WNW 13:30:54 10° N
Meteor 2-3 Rocket 4.3 13:20:29 10° SSE 13:25:29 33° E 13:26:52 29° ENE
Abrixas rocket 2.1 13:23:33 10° NW 13:26:52 89° WSW 13:28:49 23° SE
ARIANE 5 R/B 1.1 13:21:55 10° W 13:27:06 65° N 13:27:25 58° NE
Helios 1B rocket 3.7 13:27:17 10° N 13:31:07 39° WNW 13:35:00 10° SSW
USA 129 4.5 13:31:12 15° W 13:31:13 15° W 13:32:27 10° WSW
Meteor 2-20 Rocket 4.4 13:25:31 10° S 13:31:29 60° E 13:35:58 18° NNE
Resurs 01 Rocket 1.5 13:32:14 10° SSE 13:36:41 72° ENE 13:41:06 10° N
ALOS 2.1 13:34:57 10° SSE 13:39:38 88° ENE 13:44:16 10° N
SL-19 R/B 4.5 13:37:15 10° SSE 13:43:51 89° ENE 13:49:54 10° NNW
Resurs 1-3 3.4 13:40:12 10° SSE 13:44:34 72° ENE 13:45:53 44° N
ERBS 3.2 13:42:55 10° SW 13:46:16 43° WNW 13:46:36 42° NW
Cosmos 1455 3.3 13:43:43 10° NNW 13:47:21 43° W 13:51:03 10° SSW
Ariane H10-3 2.0 13:46:04 10° W 13:47:42 50° WNW 13:47:42 50° WNW
Milstar 3 4.3 13:51:00 10° NNW 13:55:08 22° NNE 13:55:08 22° NNE
Cosmos 2297 3.6 13:58:53 10° NNW 14:04:36 89° W 14:10:22 10° SSE
Ariane H10 3.9 13:57:00 10° W 14:11:03 62° S 14:11:29 59° SSE
ARIANE DEB (SPELDA) 4.0 14:07:51 10° W 14:11:56 73° S 14:16:30 38° ESE
GPS 2-04 Rocket1 4.3 14:09:50 10° WNW 14:12:19 32° WNW 14:12:19 32° WNW
H-2A R/B 4.4 14:13:11 10° SSW 14:16:21 33° WSW 14:16:21 33° WSW
Cosmos 2266 Rocket 4.2 14:18:22 10° S 14:23:12 58° S 14:23:12 58° S
CZ-3C R/B 3.4 14:21:44 10° W 14:25:09 17° NW 14:25:09 17° NW
USA 234 4.1 14:31:26 37° SSE 14:31:26 37° SSE 14:35:58 10° SSW
CZ-3C R/B 3.7 14:29:36 10° W 14:34:00 16° NW 14:34:00 16° NW
ATLAS 2AS CENTAUR R/B 3.0 14:36:27 10° SSW 14:41:57 63° SW 14:41:57 63° SW
CZ-3 Stage 3 4.5 13:53:31 10° SW 15:08:03 64° SSE 15:09:38 61° SE
Milstar 3 Cent rocket 4.4 20:28:47 10° WSW 20:56:46 53° NE 21:03:05 10° NE
CZ-3 R/B 4.4 21:15:12 38° N 21:18:10 39° N 21:28:09 10° ENE
Ariane H10+ 4.2 21:38:00 28° ENE 21:38:00 28° ENE 21:39:38 10° E
Cosmos 2360 Rocket 4.2 21:46:19 18° S 21:46:19 18° S 21:47:43 10° S
H-2A ROCKET BODY 4.5 21:40:09 36° SW 21:43:28 44° S 22:28:43 10° SE
Cosmos 1725 Rocket 4.1 21:46:58 10° S 21:52:47 72° SE 21:52:47 72° SE
Cosmos 2333 Rocket 3.7 22:00:34 21° NNE 22:03:24 31° ENE 22:08:25 10° SE
ARIANE 5 R/B 3.0 22:05:14 31° E 22:05:14 31° E 22:06:32 10° E
Ariane 42L Rocket 4.2 22:04:20 36° NNE 22:04:20 36° NNE 22:13:31 10° ENE
Delta 168 4.2 22:04:22 70° W 22:05:21 82° SSW 22:11:31 10° ESE
Cosmos 2219 Rocket 2.9 22:06:24 38° NNE 22:07:57 48° ENE 22:13:19 10° SSE
Cosmos 2227 4.0 22:11:01 10° SSW 22:20:45 19° N 22:22:15 10° NNE
CENTAUR R/B 3.9 22:19:50 31° WSW 22:19:50 31° WSW 22:26:10 10° S
Tiangong 1 3.8 22:21:32 16° E 22:21:32 16° E 22:22:34 10° E
ARIANE 5 R/B 3.7 21:35:43 10° W 22:20:53 67° S 22:25:48 10° E
Okean-O 4.2 22:24:27 23° SSW 22:24:27 23° SSW 22:26:10 10° SSW
Cosmos 332 Rocket 4.0 22:24:35 45° NNE 22:25:59 68° ENE 22:30:50 10° SSE
OAO 1 4.4 22:25:58 66° W 22:26:32 72° SW 22:32:03 10° SE
CZ-2C R/B 3.6 22:25:52 10° SSE 22:30:20 85° ENE 22:31:13 57° N
Ariane H10 3.7 22:34:08 40° WNW 22:36:52 69° NNE 23:08:34 10° E
Cosmos 1408 Rocket 3.5 22:35:26 37° N 22:37:05 78° E 22:41:23 10° S
Cosmos 44 2.9 22:38:24 62° WSW 22:38:27 62° WSW 22:42:42 10° SSE
Cosmos 2233 Rocket 3.8 22:32:40 10° S 22:38:50 71° W 22:45:02 10° N
Cosmos 2237 Rocket 2.7 22:37:07 14° N 22:42:01 59° ENE 22:47:36 10° SSE
COSMOS 2428 3.6 22:44:45 29° WSW 22:44:45 29° WSW 22:49:21 10° SSW
Cosmos 1763 Rocket 3.7 22:44:39 41° W 22:45:10 43° WSW 22:50:01 10° S
SL-16 R/B 4.5 22:44:03 10° NNE 22:48:18 22° ENE 22:52:34 10° ESE
Cosmos 1842 Rocket 3.7 22:45:26 10° SSW 22:49:34 45° W 22:49:56 44° WNW
Meteor 1-16 Rocket 4.1 22:48:40 10° SSW 22:54:15 67° W 22:59:38 10° N
Cosmos 371 Rocket 3.2 22:52:02 22° NNW 22:55:07 75° W 22:59:59 10° S
Cosmos 540 Rocket 3.8 22:54:25 10° N 22:59:28 66° ENE 23:04:31 10° SSE
Cosmos 1743 Rocket 4.0 22:56:46 10° N 23:01:05 63° E 23:05:21 10° SSE
ARIANE 5 DEB (SYLDA) 3.9 23:02:55 25° W 23:05:14 87° S 23:21:00 10° E
NOAA 6 4.4 23:01:15 10° N 23:06:06 41° WNW 23:10:58 10° SSW
ATLAS 3B CENTAUR R/B 4.2 23:05:40 10° NNW 23:07:08 11° N 23:08:55 10° NNE
Cosmos 2344 3.7 23:02:12 10° SW 23:10:54 60° WNW 23:18:26 10° N
CZ-4 R/B 4.3 23:07:44 10° NE 23:10:58 22° ESE 23:14:13 10° SSE
SOZ 4.5 23:12:41 35° NW 23:13:17 57° WSW 23:15:25 10° SSE
Cosmos 1271 Rocket 3.5 23:14:53 10° SSW 23:18:19 29° W 23:21:40 10° NNW
Meteor 2-12 Rocket 4.4 23:12:17 10° S 23:18:23 77° W 23:24:30 10° N
ARIANE 44L R/B 3.0 23:20:03 19° W 23:22:14 81° N 23:29:50 10° E
Cosmos 1500 Rocket 3.5 23:22:44 10° N 23:27:11 82° W 23:31:40 10° S
Cosmos 2263 Rocket 2.2 23:22:20 10° SSW 23:27:53 62° WNW 23:33:27 10° N
Cosmos 1980 4.3 23:24:49 10° NW 23:29:54 36° WSW 23:35:01 10° S
Cosmos 1464 Rocket 4.1 23:27:06 10° SSW 23:33:19 56° W 23:39:29 10° N
ARIANE DEB (SYLDA) 4.4 22:59:28 10° W 23:34:08 65° SSW 23:39:21 10° ESE
Cosmos 304 Rocket 4.0 23:31:02 10° N 23:35:46 74° ENE 23:40:32 10° SSE
Ariane H10 2.9 23:34:20 11° WNW 23:36:56 52° N 23:43:34 10° E
Ariane H10 3.7 23:25:45 10° W 23:36:59 59° NNW 23:39:56 10° ENE
SKYMED 2 3.7 23:37:16 10° SSE 23:41:36 79° E 23:45:55 10° N
Cosmos 1674 4.4 23:39:40 10° NW 23:41:59 16° W 23:44:19 10° SW
CZ-2C R/B 3.0 23:38:09 10° NNE 23:42:40 60° ESE 23:47:19 10° S
ASTRO F (AKARI) 4.2 23:39:54 10° SSE 23:43:02 89° ENE 23:46:13 10° NNW
CSL-04 Debris 4.2 23:38:24 10° N 23:43:44 62° WNW 23:49:05 10° SSW
Cosmos 1898 Rocket 3.5 23:41:12 10° SSW 23:46:22 77° W 23:51:35 10° N
Cosmos 2333 Rocket 3.7 23:43:36 10° WNW 23:47:23 18° WSW 23:51:11 10° SSW
Sylda 4400 4.0 23:44:49 10° WNW 23:48:05 25° N 23:50:13 10° NE
Cosmos 2221 3.7 23:46:06 10° SW 23:49:31 22° W 23:52:54 10° NW
Cosmos 1461 4.0 23:47:04 10° NW 23:50:35 27° WSW 23:54:14 10° S
